Regional Weather Roundup
Issued by NWS

Home | Current Version | Previous Version | Text Only | Print | Product List | Glossary Off
Versions: 1 2 3 4 5 6 7 8 9 10 11 12 13 14 15 16 17 18 19 20 21 22 23 24 25 26 27 28 29 30 31 32 33 34 35 36 37 38 39 40 41 42 43 44 45 46 47 48 49 50

656
ASUS45 KBOU 302307
RWRCO

WEATHER ROUNDUP FOR COLORADO
NATIONAL WEATHER SERVICE DENVER/BOULDER CO
500 PM MDT SUN APR 30 2017

NOTE: "FAIR" INDICATES FEW OR NO CLOUDS BELOW 12000 FEET WITH NO
SIGNIFICANT WEATHER AND/OR OBSTRUCTIONS TO VISIBILITY.

COZ001>005-013-030-031-010000-
...NORTHWEST COLORADO...

CITY           SKY/WX    TMP DP  RH WIND       PRES   REMARKS
CRAIG          CLOUDY    53  24  32 W18G24    30.02F
HAYDEN         FAIR      48  21  34 W12       30.01F
MEEKER         CLOUDY    54  23  30 W13       30.04F
MOUNT WERNER   NOT AVBL
STEAMBOAT SPGS CLOUDY    47  23  40 SW13      30.02F
WALDEN           N/A     46  18  31 W20G26    30.02F
$$

COZ006>008-011-010000-
...WEST CENTRAL VALLEYS...

CITY           SKY/WX    TMP DP  RH WIND       PRES   REMARKS
GRAND JUNCTION CLOUDY    63  17  17 VRB3      30.00F
MONTROSE       FAIR      58  17  20 W14       30.05F
EAGLE          CLOUDY    52  18  25 NW8       30.05S
RIFLE          CLOUDY    58  18  21 NW9       30.01F
DELTA          FAIR      64  17  16 SW15G23   30.01F
NUCLA          FAIR      59  10  14 W9        30.06F
$$

COZ017>023-064>068-010000-
...SOUTHWEST COLORADO...

CITY           SKY/WX    TMP DP  RH WIND       PRES   REMARKS
DURANGO        FAIR      60  13  15 NW25G37   29.94S
CORTEZ         FAIR      61  14  16 NW24G32   30.01F
PAGOSA SPRINGS FAIR      57   2  11 NW8G16    29.97S
TELLURIDE      FAIR      44  19  35 CALM      30.12F
WOLF CREEK PAS FAIR      32   9  37 W9        30.16F WCI  24
$$

COZ009-010-012-014-032>034-037-058>063-010000-
...CENTRAL COLORADO...

CITY           SKY/WX    TMP DP  RH WIND       PRES   REMARKS
ASPEN          PTSUNNY   46  17  31 N15       30.04S
BUENA VISTA    FAIR      47  11  22 W21G28    29.93F
COPPER MTN     LGT SNOW  30  14  51 MISG      30.09S VSB 1
BERTHOUD PASS  HVY SNOW  18   7  62 MISG      30.01R VSB<1/4
COTTONWOOD PAS FAIR      43  12  28 SW30G43   30.00S
GUNNISON       FAIR      47  13  25 N15G26    30.03S
KREMMLING      PTSUNNY   50  23  34 NW10G17   30.04F
LEADVILLE      PTSUNNY   35  14  42 NW16G31   30.03S WCI  25
MONARCH PASS   FAIR      28  18  64 NW25G41   30.16S WCI  14
SALIDA         FAIR      55  13  18 W12G20    29.99R
SUNLIGHT       CLOUDY    30  16  55 W7G21     30.18S WCI  23
WILKERSON PASS FAIR      30  14  51 NW12G28   30.05R WCI  21
$$

COZ069>075-010000-
...SAN LUIS VALLEY/SANGRE DE CRISTO MOUNTAINS...

CITY           SKY/WX    TMP DP  RH WIND       PRES   REMARKS
ALAMOSA        FAIR      56   9  15 NW22      29.91R
LA VETA PASS   FAIR      41  14  33 W9G21     30.09R
SAGUACHE       FAIR      50  12  22 NW29G38   29.94R
$$

COZ035-036-038>040-010000-
...NORTHERN COLORADO FRONT RANGE...

CITY           SKY/WX    TMP DP  RH WIND       PRES   REMARKS
DENVER INTL AP FAIR      60  17  18 N30G40    29.82F
DMNS CITY PARK   N/A     60  15  17 W15G22    29.83F
AURORA         MOSUNNY   58  17  19 N28G40    29.83F
FRONT RANGE AP PTSUNNY   59  23  25 NW30G41   29.84S
ERIE MUNI ARPT PTSUNNY   64  15  14 NW13      29.82F
BOULDER MUN AP FAIR      63  25  23 W17G28    29.83S
CENTENNIAL     FAIR      50  28  42 W10       29.85F
BROOMFIELD     MOSUNNY   59  25  27 W8        29.85F
FORT COLLINS   FAIR      61  22  22 NW24G32   29.84F
LONGMONT       FAIR      66  19  16 NW23      29.84S
$$

COZ041-046-047-076>085-087-088-010000-
...PIKES PEAK/PALMER DIVIDE AND SOUTHERN FOOTHILLS...

CITY           SKY/WX    TMP DP  RH WIND       PRES   REMARKS
COLO. SPRINGS  FAIR      55  15  20 N25G35    29.87S
A. F. ACADEMY  FAIR      51  16  25 N21G31    29.87S
SCHRIEVER AFB  FAIR      52  19  27 NW24G30   29.87S
ELLICOTT       FAIR     N/A N/A N/A N29G40    29.83S
FALCON         FAIR      51  19  28 NW16G24   29.89R
FORT CARSON    FAIR      56  18  22 N21G31    29.85S
LIMON          FAIR      54  21  27 N30G51    29.80R
MONUMENT HILL  FAIR      45  23  42 NW17G23   29.90S
TRINIDAD       FAIR      48  23  37 N8        29.89F
$$

COZ042>045-048>051-090-091-010000-
...NORTHEAST COLORADO...

CITY           SKY/WX    TMP DP  RH WIND       PRES   REMARKS
GREELEY ARPT   FAIR      63  18  17 N31G39    29.81F
AKRON          FAIR      55  18  23 N28G45    29.79F
BURLINGTON     NOT AVBL
WRAY           NOT AVBL
STERLING       FAIR      57  21  24 N18G32    29.79F
HOLYOKE        FAIR      54  21  28 N28G37    29.77S
FORT MORGAN    FAIR      59  20  22 N25G37    29.81F
$$

COZ086-089-092>099-010000-
...SOUTHEAST COLORADO...

CITY           SKY/WX    TMP DP  RH WIND       PRES   REMARKS
PUEBLO         FAIR      54  32  43 SW14      29.84F
LA JUNTA       FAIR      59  29  31 NW29G41   29.80S
LAMAR          FAIR      58  25  28 N30G41    29.73S
SPRINGFIELD      N/A     41  30  65 NW18      29.79R
$$




USA.gov is the U.S. government's official web portal to all federal, state and local government web resources and services.